GW3736 Weather Reports


time (UTC)temp
F
wind
direction
speed
knots
gust
knots
rain 1hr
in
rain 24hr
in
rain mn
in
humidity
%
barometer
mb
20260901200526 85 120 4.3 7.8 0.00 0.00 0.00 71 1009.4
20260901195522 85 120 2.6 6.1 0.00 0.00 0.00 71 1009.5
20260901194519 86 119 2.6 7.0 0.00 0.00 0.00 71 1009.6
20260901193537 86 122 2.6 5.2 0.00 0.00 0.00 70 1009.7
20260901192531 87 121 1.7 5.2 0.00 0.00 0.00 70 1009.7
20260901191527 87 124 4.3 7.8 0.00 0.00 0.00 70 1009.5
20260901190524 87 122 4.3 7.8 0.00 0.00 0.00 71 1009.5
20260901185520 87 124 4.3 7.0 0.00 0.00 0.00 71 1009.4
20260901184516 88 125 5.2 7.8 0.00 0.00 0.00 71 1009.4
20260901183552 87 126 3.5 7.0 0.00 0.00 0.00 71 1009.5
20260901182529 87 131 3.5 7.0 0.00 0.00 0.00 71 1009.5
20260901181525 87 136 4.3 7.8 0.00 0.00 0.00 71 1009.6
20260901180541 87 140 3.5 6.1 0.00 0.00 0.00 71 1009.7
20260901175518 87 134 4.3 7.0 0.00 0.00 0.00 70 1009.6
20260901174533 87 141 3.5 7.0 0.00 0.00 0.00 71 1009.7
20260901173553 87 139 4.3 7.8 0.00 0.00 0.00 70 1009.6
20260901172526 87 137 4.3 8.7 0.00 0.00 0.00 70 1009.9
20260901171542 87 136 4.3 7.8 0.00 0.00 0.00 72 1010.0
20260901170518 87 144 3.5 7.0 0.00 0.02 0.00 72 1010.2
20260901165534 87 139 3.5 7.0 0.00 0.02 0.00 72 1010.3
20260901164530 87 139 3.5 6.1 0.00 0.02 0.00 73 1010.5
20260901163607 86 139 3.5 6.1 0.00 0.02 0.00 73 1010.5
20260901162524 86 139 2.6 5.2 0.00 0.02 0.00 73 1010.5
20260901161519 85 155 4.3 7.8 0.00 0.02 0.00 74 1010.6
20260901160515 84 176 1.7 5.2 0.00 0.02 0.00 74 1010.7
20260901155532 84 186 0.9 2.6 0.00 0.02 0.00 74 1010.6
20260901154527 84 184 1.7 5.2 0.00 0.02 0.00 74 1010.7
20260901153524 83 184 2.6 7.0 0.00 0.02 0.00 75 1010.6
20260901152520 83 184 2.6 5.2 0.00 0.02 0.00 76 1010.7
20260901151516 82 178 0.9 5.2 0.00 0.02 0.00 78 1010.8
20260901150552 81 183 2.6 7.0 0.00 0.02 0.00 78 1010.9
20260901145528 81 184 2.6 5.2 0.00 0.02 0.00 78 1011.0
20260901144545 81 190 4.3 7.8 0.00 0.02 0.00 78 1011.0
20260901143541 81 183 1.7 3.5 0.00 0.02 0.00 79 1010.8
20260901142517 80 181 1.7 3.5 0.00 0.02 0.00 80 1010.7
20260901141553 80 184 2.6 3.5 0.00 0.02 0.00 80 1010.8
20260901140530 80 184 1.7 5.2 0.00 0.02 0.00 81 1010.7
20260901135525 79 183 2.6 5.2 0.00 0.02 0.00 82 1010.7
20260901134521 79 183 2.6 5.2 0.00 0.02 0.00 82 1010.6
20260901133519 78 185 2.6 6.1 0.00 0.02 0.00 83 1010.6
20260901132534 78 183 1.7 5.2 0.00 0.02 0.00 84 1010.4
20260901131530 77 182 2.6 3.5 0.00 0.02 0.00 85 1010.6
20260901130546 76 182 1.7 5.2 0.00 0.02 0.00 86 1010.8
20260901125522 76 183 1.7 5.2 0.00 0.02 0.00 86 1010.8
20260901124558 75 184 2.6 6.1 0.00 0.02 0.00 87 1011.0
20260901123535 75 182 1.7 3.5 0.00 0.02 0.00 87 1010.9
20260901122551 74 182 1.7 3.5 0.00 0.02 0.00 87 1010.8
20260901121527 74 182 1.7 3.5 0.00 0.02 0.00 87 1010.7
20260901120522 73 180 1.7 3.5 0.00 0.02 0.00 87 1010.7
20260901115621 73 179 0.9 1.7 0.00 0.02 0.00 87 1010.6
20260901114535 73 181 0.9 2.6 0.00 0.02 0.00 87 1010.5
20260901113531 73 181 0.9 1.7 0.00 0.02 0.00 86 1010.5
20260901112529 73 181 0.0 1.7 0.00 0.02 0.00 86 1010.4
20260901111524 73 181 0.0 0.9 0.00 0.02 0.00 86 1010.4
20260901110520 73 181 0.0 0.9 0.00 0.02 0.00 86 1010.4
20260901105517 73 181 0.9 1.7 0.00 0.02 0.00 86 1010.4
20260901104553 73 182 0.9 1.7 0.00 0.02 0.00 86 1010.4
20260901103528 73 182 0.0 1.7 0.00 0.02 0.00 85 1010.0
20260901102525 73 182 0.0 0.9 0.00 0.02 0.00 85 1010.1
20260901101520 74 0.0 0.0 0.00 0.02 0.00 85 1010.1
20260901100516 74 182 0.9 1.7 0.00 0.02 0.00 85 1010.1
20260901095533 74 182 0.9 3.5 0.00 0.02 0.00 85 1010.0
20260901094529 74 182 0.9 2.6 0.00 0.02 0.00 85 1010.0
20260901093525 74 181 0.9 2.6 0.00 0.02 0.00 85 1009.9
20260901092521 74 182 1.7 5.2 0.00 0.02 0.00 85 1009.8
20260901091517 74 181 1.7 3.5 0.00 0.02 0.00 85 1009.8
20260901090533 74 182 1.7 6.1 0.00 0.02 0.00 85 1009.8
20260901085529 74 183 2.6 6.1 0.00 0.02 0.00 85 1009.7
20260901084525 75 183 2.6 5.2 0.00 0.02 0.00 85 1009.7
20260901083521 75 183 2.6 6.1 0.00 0.02 0.00 84 1009.7
20260901082517 75 182 1.7 6.1 0.00 0.02 0.00 84 1009.5
20260901081534 75 184 2.6 6.1 0.00 0.02 0.00 84 1009.4
20260901080530 75 182 1.7 6.1 0.00 0.02 0.00 84 1009.4
20260901075526 75 182 1.7 5.2 0.00 0.02 0.00 84 1009.5
20260901074522 75 185 2.6 7.8 0.00 0.02 0.00 84 1009.5
20260901073518 75 187 3.5 7.8 0.00 0.02 0.00 85 1009.5
20260901072534 75 183 2.6 5.2 0.00 0.02 0.00 85 1009.6
20260901071530 75 182 2.6 5.2 0.00 0.02 0.00 85 1009.4
20260901070526 75 179 0.9 2.6 0.00 0.02 0.00 85 1009.5
20260901065524 75 179 1.7 3.5 0.00 0.02 0.00 85 1009.4
20260901064519 75 179 0.9 2.6 0.00 0.02 0.00 85 1009.6
20260901063535 74 180 1.7 3.5 0.00 0.02 0.00 85 1009.7
20260901062531 74 177 0.9 2.6 0.00 0.02 0.00 85 1009.8
20260901061527 74 179 1.7 3.5 0.00 0.02 0.00 85 1010.0
20260901060523 74 179 0.9 3.5 0.00 0.02 0.00 86 1010.0
20260901055519 73 181 1.7 3.5 0.00 0.02 0.00 86 1010.1
20260901054515 73 176 0.9 2.6 0.00 0.02 0.00 85 1010.1
20260901053531 72 127 0.0 0.9 0.00 0.02 0.00 85 1010.2
20260901052609 72 0.0 0.0 0.00 0.02 0.00 85 1010.3
20260901051524 72 0.0 0.0 0.00 0.02 0.00 85 1010.3
20260901050522 72 0.0 0.0 0.00 0.02 0.00 84 1010.2
20260901045516 72 0.0 0.0 0.00 0.02 0.00 84 1010.2
20260901044534 73 0.0 0.0 0.00 0.02 0.00 84 1010.2
20260901043530 73 0.0 0.0 0.00 0.02 0.00 84 1010.1
20260901042525 73 103 0.0 0.9 0.00 0.02 0.00 84 1010.1
20260901041522 73 53 0.0 0.9 0.00 0.02 0.00 84 1010.2
20260901040517 73 82 0.9 1.7 0.00 0.02 0.00 84 1010.2
20260901035533 73 151 0.9 1.7 0.00 0.02 0.02 83 1010.3
20260901034531 73 150 0.9 1.7 0.00 0.02 0.02 83 1010.3
20260901033525 73 151 0.9 2.6 0.00 0.02 0.02 83 1010.3
20260901032521 73 148 0.0 0.9 0.00 0.02 0.02 83 1010.4
20260901031519 73 152 1.7 2.6 0.00 0.02 0.02 83 1010.4
20260901030534 73 151 0.9 2.6 0.00 0.02 0.02 83 1010.3
20260901025531 73 151 0.9 3.5 0.00 0.02 0.02 83 1010.4
20260901024526 73 149 1.7 3.5 0.00 0.02 0.02 82 1010.6
20260901023521 73 149 1.7 3.5 0.00 0.02 0.02 82 1010.6
20260901022518 73 151 1.7 3.5 0.00 0.02 0.02 82 1010.6
20260901021614 74 151 1.7 3.5 0.00 0.02 0.02 82 1010.5
20260901020550 74 150 2.6 6.1 0.00 0.02 0.02 82 1010.4
20260901015528 74 149 2.6 5.2 0.00 0.02 0.02 82 1010.6
20260901014522 74 159 2.6 6.1 0.00 0.02 0.02 81 1010.7
20260901013518 74 152 3.5 7.8 0.00 0.02 0.02 81 1010.6
20260901012534 74 151 2.6 7.0 0.00 0.02 0.02 81 1010.4
20260901011531 74 152 2.6 6.1 0.00 0.02 0.02 80 1010.3
20260901010527 74 158 2.6 7.0 0.00 0.02 0.02 81 1010.1
20260901005523 74 148 4.3 9.6 0.00 0.02 0.02 80 1010.0
20260901004519 75 155 2.6 7.0 0.00 0.02 0.02 80 1009.9
20260901003515 75 150 4.3 12.2 0.00 0.02 0.02 80 1010.0
20260901002532 75 150 3.5 7.8 0.00 0.02 0.02 80 1010.0
20260901001550 76 150 3.5 7.0 0.00 0.02 0.02 80 1010.0
20260901000524 76 150 3.5 7.0 0.00 0.02 0.02 80 1010.1
20260831235520 76 149 3.5 7.8 0.00 0.02 0.02 80 1010.1
20260831234518 76 151 3.5 9.6 0.00 0.02 0.02 80 1010.2
20260831233532 76 149 3.5 7.8 0.00 0.02 0.02 80 1010.2
20260831232609 76 153 1.7 5.2 0.00 0.02 0.02 80 1010.4
20260831231525 76 160 1.7 3.5 0.00 0.02 0.02 81 1010.7
20260831230521 76 157 1.7 5.2 0.00 0.02 0.02 81 1010.8
20260831225517 76 153 1.7 3.5 0.00 0.02 0.02 81 1010.9
20260831224533 76 152 1.7 5.2 0.00 0.02 0.02 81 1011.2
20260831223529 76 162 0.9 5.2 0.00 0.02 0.02 81 1011.3
20260831222525 76 165 1.7 6.1 0.00 0.02 0.02 81 1011.3
20260831221521 76 150 3.5 7.0 0.00 0.02 0.02 81 1010.6
20260831220519 76 149 3.5 7.0 0.00 0.02 0.02 80 1010.6
20260831215534 76 149 4.3 9.6 0.00 0.02 0.02 80 1010.7
20260831214530 76 150 3.5 7.0 0.00 0.03 0.02 80 1010.8
20260831213526 76 152 4.3 8.7 0.00 0.03 0.02 80 1010.7
20260831212542 76 146 4.3 7.8 0.00 0.03 0.02 80 1011.1
20260831211518 76 147 4.3 9.6 0.00 0.03 0.02 81 1011.1
20260831210535 77 146 4.3 7.8 0.00 0.04 0.02 81 1011.2
20260831205530 77 146 4.3 8.7 0.00 0.04 0.02 81 1011.5
20260831204527 77 148 3.5 7.8 0.00 0.04 0.02 81 1011.7
20260831203525 77 147 3.5 6.1 0.00 0.04 0.02 81 1011.8
20260831202519 77 144 5.2 11.3 0.00 0.04 0.02 81 1011.6
20260831201555 78 145 6.1 9.6 0.00 0.04 0.02 82 1012.1